Location: Long Geng
(2.6167°N, 114.1333°E)
Time: 06:40:00
(UTC+00:00)

Cosmos 1850 Rocket - Pass Details

Date: 14 May 2021
Orbit: 753 x 786 km, 74.0° (Epoch: 13 June)

Event Time Altitude Azimuth Distance (km) Brightness Sun altitude
Rises 21:04:50 0° 344° (NNW) 3,258 7.3 -16.8°
Reaches altitude 10° 21:07:13 10° 342° (NNW) 2,329 6.5 -16.3°
Maximum altitude 21:12:30 71° 258° (WSW) 821 3.9 -15.0°
Drops below altitude 10° 21:17:45 10° 174° (S) 2,319 6.3 -13.8°
Sets 21:20:08 0° 172° (S) 3,243 7.1 -13.2°
